Weather History for PAPG - July, 2013

Change the Weather History Date:

Thursday, July 25, 2013

  Actual Average Record
Temperature  
Mean Temperature 58 °F -  
Max Temperature 64 °F 59 °F 73 °F (1987)
Min Temperature 53 °F 48 °F 44 °F (2015)
Degree Days  
Heating Degree Days 6    
Growing Degree Days 8 (Base 50)    
Moisture  
Dew Point 53 °F    
Average Humidity 87    
Maximum Humidity 94    
Minimum Humidity 68    
Precipitation  
Precipitation 0.06 in - - ()
Sea Level Pressure  
Sea Level Pressure 30.17 in    
Wind  
Wind Speed 2 mph (NE)    
Max Wind Speed 7 mph    
Max Gust Speed -    
Visibility 9 miles    
Events Fog , Rain    
Averages and records for this station are not official NWS values.
T = Trace of Precipitation, MM = Missing Value Source: NWS Daily Summary

Daily Weather History Graph

Daily Weather History Graph

Search for Another Location

Airport or City:

Trip Planner

Search our weather history database for the weather conditions in past years. The results will help you decide how hot, cold, wet, or windy it might be!

Date:

Astronomy

Jul. 25, 2013 Rise Set
Actual Time 4:39 AM AKDT 9:16 PM AKDT
Civil Twilight 3:45 AM AKDT 10:09 PM AKDT
Nautical Twilight 2:13 AM AKDT 11:38 PM AKDT
Astronomical Twilight Sun does not set Sun does not set
Moon 9:57 PM AKDT (7/25) 9:14 AM AKDT (7/25)
Length of Visible Light 18h 23m
Length of Day
16h 37m
Waning Gibbous, 87% of the Moon is Illuminated
Jul 25
Waning Gibbous
Jul 29
Last Quarter
Aug 6
New
Aug 14
First Quarter
Aug 20
Full

Hourly Weather History & Observations

Time (AKDT) Temp. Dew Point Humidity Pressure Visibility Wind Dir Wind Speed Gust Speed Precip Events Conditions
1:16 AM 55.4 °F 53.6 °F 94% 30.11 in 10.0 mi Calm Calm - N/A   Overcast
2:56 AM 53.6 °F 51.8 °F 94% 30.12 in 10.0 mi Calm Calm - N/A   Mostly Cloudy
5:56 AM 55.4 °F 51.8 °F 88% 30.13 in 7.0 mi Calm Calm - N/A Fog , Rain Light Rain
6:56 AM 53.6 °F 51.8 °F 94% 30.14 in 7.0 mi Calm Calm - N/A   Overcast
7:16 AM 55.4 °F 53.6 °F 94% 30.14 in 7.0 mi Calm Calm - N/A   Overcast
7:56 AM 55.4 °F 53.6 °F 94% 30.14 in 7.0 mi Calm Calm - N/A Fog , Rain Light Rain
8:56 AM 55.4 °F 51.8 °F 88% 30.15 in 10.0 mi Calm Calm - N/A   Overcast
9:56 AM 53.6 °F 51.8 °F 94% 30.16 in 5.0 mi North 4.6 mph - N/A Rain Light Rain Showers
10:16 AM 55.4 °F 51.8 °F 88% 30.16 in 5.0 mi North 3.5 mph - N/A   Overcast
10:36 AM 55.4 °F 51.8 °F 88% 30.16 in 5.0 mi NNE 5.8 mph - N/A   Overcast
10:56 AM 55.4 °F 51.8 °F 88% 30.17 in 10.0 mi NE 4.6 mph - N/A   Overcast
11:56 AM 55.4 °F 53.6 °F 94% 30.17 in 10.0 mi NE 3.5 mph - N/A Fog , Rain Light Rain Showers
12:36 PM 57.2 °F 53.6 °F 88% 30.17 in 10.0 mi East 3.5 mph - N/A   Mostly Cloudy
1:16 PM 55.4 °F 50.0 °F 82% 30.17 in 10.0 mi Calm Calm - N/A   Mostly Cloudy
2:55 PM 60.8 °F 53.6 °F 77% 30.17 in 10.0 mi SSW 4.6 mph - N/A   Mostly Cloudy
3:16 PM 64.4 °F 53.6 °F 68% 30.17 in 10.0 mi WSW 6.9 mph - N/A   Mostly Cloudy
3:56 PM 60.8 °F 51.8 °F 72% 30.17 in 10.0 mi SSW 4.6 mph - N/A   Mostly Cloudy
4:36 PM 62.6 °F 53.6 °F 72% 30.17 in 10.0 mi East 6.9 mph - N/A   Mostly Cloudy
4:56 PM 62.6 °F 53.6 °F 72% 30.17 in 10.0 mi ENE 6.9 mph - N/A   Mostly Cloudy
5:16 PM 62.6 °F 53.6 °F 72% 30.17 in 10.0 mi ENE 6.9 mph - N/A   Mostly Cloudy
5:36 PM 60.8 °F 51.8 °F 72% 30.18 in 10.0 mi ENE 4.6 mph - N/A   Mostly Cloudy
5:56 PM 59.0 °F 53.6 °F 82% 30.18 in 10.0 mi Calm Calm - N/A   Mostly Cloudy
6:16 PM 59.0 °F 53.6 °F 82% 30.18 in 10.0 mi ENE 3.5 mph - N/A   Mostly Cloudy
6:36 PM 59.0 °F 53.6 °F 82% 30.18 in 10.0 mi ENE 6.9 mph - N/A   Mostly Cloudy
6:56 PM 57.2 °F 51.8 °F 82% 30.18 in 10.0 mi Calm Calm - N/A   Mostly Cloudy
7:16 PM 55.4 °F 51.8 °F 88% 30.19 in 10.0 mi NW 5.8 mph - N/A   Mostly Cloudy
7:36 PM 55.4 °F 53.6 °F 94% 30.19 in 10.0 mi Calm Calm - 0.06 in   Mostly Cloudy
8:16 PM 55.4 °F 53.6 °F 94% 30.19 in 10.0 mi Calm Calm - N/A   Mostly Cloudy
8:36 PM 55.4 °F 53.6 °F 94% 30.19 in 10.0 mi Calm Calm - N/A   Mostly Cloudy
8:56 PM 55.4 °F 53.6 °F 94% 30.19 in 10.0 mi WSW 4.6 mph - N/A   Mostly Cloudy
9:16 PM 55.4 °F 53.6 °F 94% 30.19 in 10.0 mi Calm Calm - N/A   Mostly Cloudy
9:36 PM 55.4 °F 53.6 °F 94% 30.19 in 10.0 mi Calm Calm - N/A   Mostly Cloudy
9:56 PM 55.4 °F 53.6 °F 94% 30.19 in 10.0 mi Calm Calm - N/A   Mostly Cloudy
10:16 PM 55.4 °F 51.8 °F 88% 30.20 in 10.0 mi Calm Calm - N/A   Overcast
10:36 PM 55.4 °F 51.8 °F 88% 30.20 in 10.0 mi Calm Calm - N/A   Overcast
11:16 PM 55.4 °F 53.6 °F 94% 30.20 in 10.0 mi Calm Calm - N/A   Overcast
11:56 PM 55.4 °F 53.6 °F 94% 30.21 in 10.0 mi Calm Calm - N/A   Overcast